Beatrice, NE

7:11 PM CST on December 07, 2016 (GMT -0600)
Beatrice Municipal

Weather History for KBIE - February, 2010

Change the Weather History Date:

Saturday, February 20, 2010

  Actual Average Record
Temperature  
Mean Temperature 26 °F -  
Max Temperature 28 °F 47 °F 71 °F (1981)
Min Temperature 23 °F 23 °F 0 °F (2008)
Degree Days  
Heating Degree Days 40    
Moisture  
Dew Point 24 °F    
Average Humidity 93    
Maximum Humidity 96    
Minimum Humidity 90    
Precipitation  
Precipitation 0.01 in - - ()
Sea Level Pressure  
Sea Level Pressure 30.12 in    
Wind  
Wind Speed 8 mph (NNE)    
Max Wind Speed 10 mph    
Max Gust Speed 16 mph    
Visibility 5 miles    
Events Snow    
Averages and records for this station are not official NWS values.
T = Trace of Precipitation, MM = Missing Value Source: NWS Daily Summary

Daily Weather History Graph

Daily Weather History Graph

Search for Another Location

Airport or City:

Trip Planner

Search our weather history database for the weather conditions in past years. The results will help you decide how hot, cold, wet, or windy it might be!

Date:

Astronomy

Feb. 20, 2010 Rise Set
Actual Time 7:13 AM CST 6:08 PM CST
Civil Twilight 6:46 AM CST 6:36 PM CST
Nautical Twilight 6:14 AM CST 7:07 PM CST
Astronomical Twilight 5:42 AM CST 7:39 PM CST
Moon 9:55 AM CST (2/20) 12:00 AM CST (2/20)
Length of Visible Light 11h 50m
Length of Day
10h 54m
Waxing Crescent, 37% of the Moon is Illuminated
Feb 20
Waxing Crescent
Feb 21
First Quarter
Feb 28
Full
Mar 7
Last Quarter
Mar 15
New

Hourly Weather History & Observations

Time (CST) Temp. Windchill Dew Point Humidity Pressure Visibility Wind Dir Wind Speed Gust Speed Precip Events Conditions
12:10 AM 24.8 °F 16.1 °F 23.4 °F 94% 30.08 in 7.0 mi North 8.1 mph - N/A   Overcast
12:30 AM 24.8 °F 17.9 °F 23.0 °F 93% 30.09 in 7.0 mi North 5.8 mph - N/A   Overcast
12:50 AM 24.8 °F 16.9 °F 23.0 °F 93% 30.09 in 7.0 mi North 6.9 mph - N/A   Overcast
1:10 AM 24.4 °F 14.9 °F 22.8 °F 94% 30.10 in 7.0 mi North 9.2 mph - N/A   Overcast
1:30 AM 24.3 °F 15.4 °F 22.6 °F 94% 30.10 in 7.0 mi North 8.1 mph - N/A   Overcast
1:50 AM 24.3 °F 16.3 °F 22.6 °F 94% 30.11 in 5.0 mi North 6.9 mph - N/A   Overcast
2:10 AM 23.9 °F 16.8 °F 22.5 °F 94% 30.10 in 7.0 mi North 5.8 mph - N/A   Overcast
2:30 AM 23.9 °F 15.8 °F 22.5 °F 94% 30.11 in 5.0 mi North 6.9 mph - N/A   Overcast
2:50 AM 23.9 °F 15.0 °F 22.3 °F 94% 30.12 in 5.0 mi North 8.1 mph - N/A   Overcast
3:10 AM 23.9 °F 16.8 °F 22.5 °F 94% 30.12 in 5.0 mi North 5.8 mph - N/A   Overcast
3:30 AM 23.7 °F 15.6 °F 22.1 °F 94% 30.11 in 5.0 mi North 6.9 mph - N/A   Overcast
3:50 AM 23.9 °F 15.0 °F 22.5 °F 94% 30.12 in 5.0 mi NNW 8.1 mph - N/A   Overcast
4:10 AM 23.9 °F 13.5 °F 22.6 °F 95% 30.11 in 5.0 mi North 10.4 mph - N/A   Overcast
4:30 AM 23.9 °F 13.5 °F 22.6 °F 95% 30.11 in 5.0 mi North 10.4 mph - N/A   Overcast
4:50 AM 23.7 °F 14.0 °F 22.5 °F 95% 30.11 in 5.0 mi North 9.2 mph - N/A   Overcast
5:10 AM 23.7 °F 13.3 °F 22.5 °F 95% 30.12 in 5.0 mi NNW 10.4 mph - N/A   Overcast
5:30 AM 23.4 °F 14.3 °F 22.1 °F 95% 30.12 in 5.0 mi North 8.1 mph - N/A   Overcast
5:50 AM 23.4 °F 13.5 °F 22.1 °F 95% 30.13 in 5.0 mi North 9.2 mph - N/A   Overcast
6:10 AM 23.4 °F 13.5 °F 22.1 °F 95% 30.13 in 7.0 mi North 9.2 mph - N/A   Overcast
6:30 AM 23.5 °F 13.7 °F 22.5 °F 96% 30.14 in 5.0 mi North 9.2 mph - N/A   Overcast
6:50 AM 23.4 °F 13.5 °F 22.1 °F 95% 30.14 in 7.0 mi North 9.2 mph - N/A   Overcast
7:10 AM 23.4 °F 13.5 °F 22.1 °F 95% 30.14 in 5.0 mi North 9.2 mph - N/A   Overcast
7:30 AM 23.5 °F 13.7 °F 22.3 °F 95% 30.14 in 5.0 mi NNE 9.2 mph - N/A   Overcast
7:50 AM 23.7 °F 14.0 °F 22.1 °F 94% 30.14 in 5.0 mi NNE 9.2 mph - N/A   Overcast
8:10 AM 23.7 °F 14.7 °F 22.1 °F 94% 30.15 in 5.0 mi NNE 8.1 mph - N/A   Overcast
8:30 AM 23.9 °F 16.8 °F 22.3 °F 94% 30.15 in 5.0 mi ENE 5.8 mph - N/A   Overcast
8:50 AM 24.3 °F 15.4 °F 22.5 °F 93% 30.15 in 5.0 mi NNE 8.1 mph - N/A   Overcast
9:10 AM 24.6 °F 14.4 °F 22.6 °F 92% 30.15 in 5.0 mi NNE 10.4 mph 16.1 mph N/A   Overcast
9:30 AM 24.6 °F 15.8 °F 22.5 °F 91% 30.15 in 5.0 mi NE 8.1 mph - N/A   Overcast
9:50 AM 24.6 °F 15.8 °F 22.5 °F 91% 30.15 in 5.0 mi NE 8.1 mph - N/A   Overcast
10:10 AM 24.8 °F 15.3 °F 23.0 °F 93% 30.15 in 5.0 mi NNE 9.2 mph - N/A   Overcast
10:30 AM 24.8 °F 15.3 °F 23.0 °F 93% 30.15 in 5.0 mi NE 9.2 mph - N/A   Overcast
10:50 AM 25.3 °F 18.5 °F 23.4 °F 92% 30.15 in 5.0 mi NE 5.8 mph - N/A   Overcast
11:10 AM 25.5 °F 16.9 °F 23.5 °F 92% 30.14 in 5.0 mi NE 8.1 mph - N/A   Overcast
11:30 AM 25.7 °F 17.1 °F 23.5 °F 92% 30.14 in 5.0 mi NE 8.1 mph - N/A   Overcast
11:50 AM 25.9 °F 17.4 °F 23.7 °F 92% 30.13 in 5.0 mi ENE 8.1 mph - N/A   Overcast
12:10 PM 25.9 °F 16.6 °F 23.5 °F 91% 30.13 in 5.0 mi NE 9.2 mph - N/A   Overcast
12:30 PM 26.2 °F 18.6 °F 23.7 °F 90% 30.14 in 4.0 mi NE 6.9 mph - N/A   Overcast
12:50 PM 26.2 °F 17.8 °F 23.7 °F 90% 30.13 in 3.0 mi ENE 8.1 mph - N/A   Overcast
1:10 PM 26.4 °F 19.8 °F 23.9 °F 90% 30.12 in 1.2 mi ENE 5.8 mph - N/A Snow Light Snow
1:30 PM 26.6 °F 20.0 °F 24.6 °F 92% 30.12 in 1.0 mi NE 5.8 mph - N/A Snow Light Snow
1:50 PM 27.1 °F 20.7 °F 25.3 °F 93% 30.12 in 0.8 mi NE 5.8 mph - N/A Snow Light Snow
2:10 PM 27.7 °F 21.3 °F 25.9 °F 93% 30.11 in 1.0 mi NE 5.8 mph - N/A Snow Light Snow
2:30 PM 27.5 °F 19.3 °F 25.2 °F 91% 30.12 in 1.2 mi ENE 8.1 mph - N/A Snow Light Snow
2:50 PM 27.5 °F 19.3 °F 25.3 °F 92% 30.11 in 1.5 mi NE 8.1 mph - N/A Snow Light Snow
3:10 PM 27.7 °F 19.6 °F 25.7 °F 92% 30.11 in 3.0 mi NE 8.1 mph - N/A Snow Light Snow
3:30 PM 28.2 °F 21.0 °F 25.9 °F 91% 30.11 in 3.0 mi NE 6.9 mph - N/A Snow Light Snow
3:50 PM 27.5 °F 20.2 °F 25.7 °F 93% 30.11 in 1.2 mi NE 6.9 mph - N/A Snow Light Snow
4:10 PM 27.7 °F 20.4 °F 25.7 °F 92% 30.11 in 1.8 mi NE 6.9 mph - N/A Snow Light Snow
4:30 PM 27.9 °F 20.6 °F 26.1 °F 93% 30.10 in 5.0 mi NE 6.9 mph - N/A   Overcast
4:50 PM 28.0 °F 20.8 °F 25.7 °F 91% 30.09 in 4.0 mi NE 6.9 mph - N/A Snow Light Snow
5:10 PM 28.0 °F 21.7 °F 26.2 °F 93% 30.09 in 7.0 mi NE 5.8 mph - N/A   Overcast
5:30 PM 28.2 °F 20.2 °F 26.4 °F 93% 30.09 in 5.0 mi NE 8.1 mph - 0.01 in   Overcast
5:50 PM 28.2 °F 19.5 °F 26.2 °F 92% 30.10 in 5.0 mi NE 9.2 mph - 0.01 in   Overcast
6:10 PM 28.0 °F 20.0 °F 26.2 °F 93% 30.10 in 5.0 mi NE 8.1 mph - N/A   Overcast
6:30 PM 27.9 °F 19.1 °F 26.1 °F 93% 30.10 in 7.0 mi NE 9.2 mph - N/A   Overcast
6:50 PM 27.5 °F 18.6 °F 25.7 °F 93% 30.09 in 7.0 mi ENE 9.2 mph - N/A   Overcast
7:10 PM 27.5 °F 19.3 °F 25.0 °F 90% 30.10 in 10.0 mi NE 8.1 mph - N/A   Overcast
7:30 PM 27.5 °F 20.2 °F 25.2 °F 91% 30.10 in 10.0 mi ENE 6.9 mph - N/A   Overcast
7:50 PM 27.5 °F 19.3 °F 24.6 °F 89% 30.11 in 10.0 mi NE 8.1 mph - N/A   Overcast
8:10 PM 27.3 °F 17.1 °F 23.9 °F 87% 30.11 in 10.0 mi ENE 11.5 mph - N/A   Overcast
8:30 PM 27.3 °F 17.7 °F 23.9 °F 87% 30.10 in 10.0 mi ENE 10.4 mph - N/A   Overcast
8:50 PM 27.1 °F 17.5 °F 23.9 °F 88% 30.10 in 10.0 mi NE 10.4 mph - N/A   Overcast
9:10 PM 27.1 °F 18.2 °F 23.9 °F 88% 30.11 in 10.0 mi ENE 9.2 mph - N/A   Overcast
9:30 PM 27.1 °F 18.9 °F 23.9 °F 88% 30.11 in 10.0 mi ENE 8.1 mph - N/A   Overcast
9:50 PM 27.1 °F 19.7 °F 23.9 °F 88% 30.12 in 10.0 mi ENE 6.9 mph - N/A   Overcast
10:10 PM 27.1 °F 18.2 °F 23.9 °F 88% 30.11 in 10.0 mi NE 9.2 mph - N/A   Overcast
10:30 PM 26.8 °F 17.7 °F 23.9 °F 89% 30.11 in 10.0 mi NE 9.2 mph - N/A   Overcast
10:50 PM 26.8 °F 17.7 °F 23.7 °F 88% 30.10 in 10.0 mi ENE 9.2 mph - N/A   Overcast
11:10 PM 26.6 °F 18.2 °F 23.5 °F 88% 30.10 in 10.0 mi ENE 8.1 mph - N/A   Overcast
11:30 PM 26.6 °F 16.8 °F 23.4 °F 88% 30.10 in 10.0 mi NE 10.4 mph 16.1 mph N/A   Overcast
11:50 PM 26.4 °F 17.3 °F 23.5 °F 89% 30.09 in 10.0 mi NE 9.2 mph - N/A   Overcast